STARLINK-1201, 45182

Orbit data source: Space-Track

STARLINK-1201, 45182 is a payload satellite owned by SpaceX/Seattle (US) in LEO that was launched on Mon, 17 Feb 2020 UTC via an FALCON 9 launch vehicle from the Air Force Eastern Test Range (AFETR). Payloads include a variety of satellites, spacecraft, and rockets equipped with specific instruments for various scientific and technological missions. These include communications satellites like Starlink; space stations such as the ISS; scientific satellites like the Hubble; Earth observation satellites from companies like Planet Labs, Umbra, and HawkEye 360; GPS; miniature CubeSats for education and research; and military/defense satellites.

Loading next visibility...
STARLINK-1201 details
Identifier
45182, 2020-012E
Orbit
LEO
Last TLE update10 hours ago
Origin
Flag of USSpaceX/Seattle (US)
ManufacturerSpaceX/Seattle
MissionOperational Commercial Communications
Bus & MotorSTARLINK, Unknown motor
Mass260 kg wet, ~248 kg dry
Launch date (UTC)
2020-02-17 (5 years ago)
Launch vehicle
FALCON 9
Launch site
Air Force Eastern Test Range (AFETR)
Object type
Payload
Rocket body
Debris
Shape & HBRBox + 1 Pan, 8.86 m
Radar Cross Section13.562 m², Large (>1 m²)

Expand to show TLE details & history

TLE from 10 hours ago
0 STARLINK-1201
1 45182U 20012E   24346.47450262  .00013132  00000-0  89912-3 0  9996
2 45182  53.0566 261.1814 0001865 104.6621 255.4575 15.06388263266650
Epoch: 2024-12-11T11:23Z
Definitive object data (Epoch: 2024-12-11T11:23:17.026Z)
Latitude-0°
Longitude9.69179°
Altitude548.451 km
Speed7.589 km/s
True Right ascension17h 24m 43s
True Declination0° 00' 00"
Sunlit
Object was in daylight at TLE epoch
Visualization TLE readout
Latitude-0.331°
Longitude-171.9972°
Altitude547.786 km
Speed7.589 km/s
Apparent Right ascension06h 27m 49s
Apparent Declination-20° 25' 04"
Sunlit
Object is in full shadow
Visualization observer readout
Local Sidereal Time20:08:14
Azimuth55.14° ENE
Elevation-61.016°
Doppler factor1
Orbital elements
Apogee altitude548.81 km
Perigee altitude546.226 km
Semi-major axis6,925.655 km
Eccentricity0.0001865
Inclination53.0566°
RAAN261.1814°
Arg. of periapsis104.6621°
True anomaly255.43681°
Mean anomaly255.4575°
Eccentric anomaly255.44716°
Mean motion3.76575 °/min
BSTAR0.00089912
Orbital period95.6 mins
Loading maneuver chart data...

STARLINK-1201 Visibility forecast

Observer location: undefined°, undefined

Span
Click to sort rows by Start time (UTC) header in descending order
Start Az.
Max El. time (UTC)
Max El. Az.
Max El.
End time (UTC)
End Az.
6 mins2024-12-11 22:46:20.218Z277.53° WNW2024-12-11 22:49:20.218Z325.216° NNW23.092°2024-12-11 22:52:20.218Z24.31° NE
6 mins2024-12-12 03:49:20.218Z323.681° NNW2024-12-12 03:51:20.218Z27.846° NE41.392°2024-12-12 03:55:20.218Z118.18° SE
4 mins2024-12-12 05:29:20.218Z255.76° W2024-12-12 05:30:20.218Z237.676° WSW17.175°2024-12-12 05:33:20.218Z189.743° SSW
6 mins2024-12-12 21:01:20.218Z225.531° WSW2024-12-12 21:03:20.218Z202.356° SSW44.317°2024-12-12 21:07:20.218Z51.491° ENE
|